Regional Weather Roundup
Issued by NWS

Home | Current Version | Previous Version | Text Only | Print | Product List | Glossary On
Versions: 1 2 3 4 5 6 7 8 9 10 11 12 13 14 15 16 17 18 19 20 21 22 23 24 25 26 27 28 29 30 31 32 33 34 35 36 37 38 39 40 41 42 43 44 45 46 47 48 49 50
000
ASUS45 KBOI 281210
RWRID

IDAHO REGIONAL WEATHER ROUNDUP
NATIONAL WEATHER SERVICE BOISE ID
600 AM MDT THU MAY 28 2015

NOTE: "FAIR" INDICATES FEW OR NO CLOUDS BELOW 12000 FEET
WITH NO SIGNIFICANT WEATHER AND/OR OBSTRUCTIONS TO VISIBILITY

IDZ012-014-281300-
SOUTHWEST IDAHO


CITY           SKY/WX    TMP DP  RH WIND       PRES   REMARKS
BOISE          CLEAR     50  43  77 SE3       30.05R
CALDWELL       CLEAR     50  39  66 NW5       30.07R
MOUNTAIN HOME  CLEAR     51  42  72 N6        30.05R
$$

IDZ016-017-281300-
SOUTHCENTRAL IDAHO


CITY           SKY/WX    TMP DP  RH WIND       PRES   REMARKS
BURLEY         PTCLDY    44  41  89 CALM      30.06S
JEROME         CLEAR     50  43  77 S5        30.07R
TWIN FALLS     CLEAR     50  42  74 S9        30.05R
$$

IDZ019>023-281300-
SOUTHEAST IDAHO


CITY           SKY/WX    TMP DP  RH WIND       PRES   REMARKS
IDAHO FALLS    CLOUDY    49  47  93 CALM      30.10R
POCATELLO      PTCLDY    43  43 100 S3        30.08S
REXBURG        CLOUDY    47  46  97 CALM      30.10R
$$

IDZ006-010-011-018-031-032-281300-
CENTRAL IDAHO MOUNTAINS


CITY           SKY/WX    TMP DP  RH WIND       PRES   REMARKS
MCCALL         CLEAR     38  35  89 CALM      30.11R
HAILEY         CLEAR     41  37  87 NW6       30.12S
STANLEY          N/A     38  36  92 N5        30.17S WCI  34
SALMON         CLOUDY    48  46  93 CALM      30.10R
CHALLIS        PTCLDY    41  39  93 CALM      30.12R
$$

IDZ002-004-006-007-026-281300-
NORTHERN IDAHO


CITY           SKY/WX    TMP DP  RH WIND       PRES   REMARKS
LEWISTON       CLEAR     52  49  89 SE3       30.06R
LOWELL           N/A     51  47  86 CALM      30.13R
COEUR D`ALENE  MOCLDY    54  48  82 N5        30.04R
MULLAN PASS    CLOUDY    44  42  93 NW5       30.13R
$$


USA.gov is the U.S. government's official web portal to all federal, state and local government web resources and services.